TimeCST,TemperatureF,Dew PointF,Humidity,Sea Level PressureIn,VisibilityMPH,Wind Direction,Wind SpeedMPH,Gust SpeedMPH,PrecipitationIn,Events,Conditions,WindDirDegrees,DateUTC
12:55 AM,37.4,25.2,61,30.38,10.0,NNE,15.0,-,N/A,,Clear,20,2012-11-27 06:55:00
1:55 AM,35.8,26.2,68,30.39,10.0,North,13.8,-,N/A,,Clear,10,2012-11-27 07:55:00
2:55 AM,33.3,25.7,74,30.39,10.0,North,16.1,-,N/A,,Clear,10,2012-11-27 08:55:00
3:55 AM,32.0,25.3,76,30.39,10.0,North,13.8,-,N/A,,Clear,10,2012-11-27 09:55:00
4:55 AM,30.7,25.0,79,30.40,10.0,North,13.8,-,N/A,,Clear,10,2012-11-27 10:55:00
5:55 AM,31.1,24.8,77,30.42,10.0,North,13.8,-,N/A,,Clear,360,2012-11-27 11:55:00
6:55 AM,30.4,25.0,80,30.44,10.0,North,13.8,-,N/A,,Clear,360,2012-11-27 12:55:00
7:55 AM,30.2,24.8,80,30.46,10.0,North,12.7,-,N/A,,Clear,10,2012-11-27 13:55:00
8:55 AM,33.1,25.3,73,30.47,10.0,North,16.1,-,N/A,,Clear,10,2012-11-27 14:55:00
9:55 AM,36.1,26.1,67,30.48,10.0,North,11.5,-,N/A,,Clear,360,2012-11-27 15:55:00
10:55 AM,39.9,27.9,62,30.48,10.0,North,4.6,-,N/A,,Clear,10,2012-11-27 16:55:00
11:55 AM,45.0,28.0,52,30.45,10.0,Calm,Calm,-,N/A,,Clear,0,2012-11-27 17:55:00
12:55 PM,48.4,25.9,42,30.40,10.0,SSW,3.5,-,N/A,,Clear,200,2012-11-27 18:55:00
1:55 PM,50.0,26.2,40,30.37,10.0,South,6.9,-,N/A,,Clear,190,2012-11-27 19:55:00
2:55 PM,51.1,26.4,38,30.34,10.0,SSE,8.1,-,N/A,,Clear,150,2012-11-27 20:55:00
3:55 PM,51.3,26.1,38,30.32,10.0,SSW,4.6,-,N/A,,Clear,200,2012-11-27 21:55:00
4:55 PM,49.1,26.2,41,30.31,10.0,South,8.1,-,N/A,,Clear,180,2012-11-27 22:55:00
5:55 PM,44.4,26.8,50,30.31,10.0,South,5.8,-,N/A,,Clear,180,2012-11-27 23:55:00
6:55 PM,43.2,26.8,52,30.30,10.0,South,5.8,-,N/A,,Clear,180,2012-11-28 00:55:00
7:55 PM,42.3,26.8,54,30.32,10.0,South,4.6,-,N/A,,Clear,190,2012-11-28 01:55:00
8:55 PM,40.6,27.1,59,30.32,10.0,South,5.8,-,N/A,,Clear,190,2012-11-28 02:55:00
9:55 PM,37.9,27.0,65,30.32,10.0,South,5.8,-,N/A,,Clear,180,2012-11-28 03:55:00
10:55 PM,37.4,27.0,66,30.32,10.0,South,3.5,-,N/A,,Clear,180,2012-11-28 04:55:00
11:55 PM,37.4,27.1,66,30.32,10.0,SSE,3.5,-,N/A,,Clear,160,2012-11-28 05:55:00